Content
SEND FEEDBACK

Daily
Averages
Monthly
Summary
United States of America

CONCORDIA, MISSOURI


Home > North America > United States > Missouri
Elevation: 780 feet     Latitude: 38 59N     Longitude: 093 34W

WEATHER
 
SELECT A DAY
Number of Records: 145,677;   Date Range: 1/1/00 - 12/24/14
 
SHARE

PRINT THIS DATA

[ ← Previous Day ]
WEATHER ALMANAC - FEBRUARY 13, 2013
[ Next Day → ]
[ °C ]   °F
Weather ElementAverageHighLow
Temperature40.4 °F53.4 °F (3:55 pm)29.5 °F (6:55 am)
Dewpoint30.2 °F36.3 °F (6:55 pm)27.3 °F (6:55 am)
Humidity69.7 %92 % (6:55 am)37 % (3:55 pm)
Barometer29.89 in29.96 in (1:55 am)29.83 in (4:55 pm)
Wind Speed10.4 mph16.1 mph (5:55 pm)
Wind Gust24.2 mph (5:55 pm)
Weather ElementAverage
Visibility10 mi
Wind DirectionWSW (242.6 °)

Weather ElementTotal
Precipitation---
Heating Degree Days23.6 (Base 65)
Averaged from 23 records on February 13, 2013
WEATHER CONDITIONS BREAKOUT
WIND DIRECTION BREAKOUT
WEATHER BY HOUR - FEBRUARY 13, 2013
[ °C ]   °F
Local TimeTemperatureDewpointHumidityBarometerVisibilityWind DirectionWind SpeedGust SpeedPrecipitationEventsConditions
1:55 AM33.4 °F28.0 °F81 %29.96 in10.0 miSW (230°)6.9 mphScattered Clouds
2:55 AM33.1 °F27.7 °F81 %29.94 in10.0 miWSW (240°)9.2 mphScattered Clouds
3:55 AM32.9 °F28.0 °F82 %29.91 in10.0 miWSW (250°)6.9 mphMostly Cloudy
4:55 AM32.0 °F27.7 °F84 %29.91 in10.0 miWSW (250°)8.1 mphClear
5:55 AM30.6 °F27.5 °F88 %29.91 in10.0 miWSW (240°)6.9 mphClear
6:55 AM29.5 °F27.3 °F92 %29.91 in10.0 miWSW (250°)8.1 mphClear
7:55 AM30.7 °F28.6 °F92 %29.92 in10.0 miWSW (240°)8.1 mphClear
8:55 AM34.2 °F28.4 °F79 %29.93 in10.0 miWest (270°)9.2 mphClear
9:55 AM37.8 °F28.6 °F69 %29.93 in10.0 miWest (260°)6.9 mphClear
10:55 AM42.8 °F28.9 °F58 %29.93 in10.0 miWest (270°)8.1 mphClear
11:55 AM45.7 °F29.5 °F53 %29.92 in10.0 miWest (260°)8.1 mphClear
12:55 PM48.7 °F28.9 °F46 %29.89 in10.0 miWest (270°)15.0 mphClear
1:55 PM50.2 °F29.1 °F44 %29.88 in10.0 miWest (260°)13.8 mph19.6 mphClear
2:55 PM51.4 °F29.3 °F43 %29.85 in10.0 miWSW (250°)10.4 mphClear
3:55 PM53.4 °F27.9 °F37 %29.84 in10.0 miWest (260°)11.5 mphPartly Cloudy
4:55 PM52.5 °F27.3 °F38 %29.83 in10.0 miWSW (240°)13.8 mphClear
5:55 PM46.9 °F36.0 °F66 %29.84 in10.0 miSSW (210°)16.1 mph24.2 mphClear
6:55 PM42.6 °F36.3 °F78 %29.85 in10.0 miSSW (210°)13.8 mphClear
7:55 PM40.8 °F35.4 °F81 %29.85 in10.0 miSSW (210°)12.7 mphClear
8:55 PM40.3 °F35.1 °F82 %29.85 in10.0 miSW (220°)10.4 mphClear
9:55 PM39.9 °F34.2 °F80 %29.85 in10.0 miSW (220°)12.7 mphClear
10:55 PM39.6 °F32.9 °F77 %29.85 in10.0 miSW (230°)11.5 mphClear
11:55 PM40.6 °F32.0 °F71 %29.84 in10.0 miWSW (240°)11.5 mphClear
Hourly data recorded from KSZL, located miles away from Concordia, Missouri







STORIES FROM OUR PARTNERS